[[{"header":{"parameterUnit":"m.s-1","parameterCategory":1,"la1":30.2992,"la2":30.254,"lo1":-89.0895,"lo2":-89.0443,"dy":0.0025,"dx":0.0025,"nx":19,"ny":19,"refTime":"2026-04-12T09:00:00:Z","depth":0,"parameterNumber":2,"parameterNumberName":"U-component_of_WINDS"},"data":[0,0,0,-2.7393,-2.7393,-2.7391,-2.7391,-2.74,-2.74,0,0,0,0,0,0,0,0,0,0,0,-2.74,-2.74,-2.7393,-2.7394,-2.7391,-2.7391,-2.74,-2.74,0,0,0,0,0,0,0,0,0,0,0,-2.74,-2.74,-2.7401,-2.7394,-2.7391,-2.7391,-2.74,-2.7397,0,0,0,0,0,0,0,0,0,0,-2.7398,-2.741,-2.74,-2.7401,-2.7394,-2.7391,-2.7391,-2.7397,-2.7398,-2.7405,0,-2.7413,0,-2.7407,-2.7401,-2.7401,0,0,0,-2.7389,-2.7409,-2.7403,-2.7401,-2.7394,-2.7391,-2.7391,-2.7397,-2.7398,-2.7406,-2.7413,-2.7413,-2.7407,-2.7401,-2.7401,-2.7459,-2.746,0,0,-2.7389,-2.7403,-2.7403,-2.7404,-2.7404,-2.7391,-2.7391,-2.7397,-2.7407,-2.7413,-2.7413,-2.7407,-2.7401,-2.7401,-2.7459,-2.7459,0,0,0,-2.7392,-2.7404,-2.7397,-2.7404,-2.7403,-2.7391,-2.7391,-2.7406,-2.7403,-2.7413,-2.7407,-2.7401,-2.7402,-2.7458,-2.7459,-2.7495,0,0,0,-2.7392,-2.7405,-2.7397,-2.7406,-2.7403,-2.7404,-2.74,-2.7402,-2.7403,-2.7407,-2.7401,-2.7402,-2.7458,-2.7459,-2.7493,-2.7509,0,0,0,-2.7398,-2.7406,-2.7408,-2.7407,-2.7406,-2.7404,-2.7401,-2.7402,-2.7399,-2.7401,-2.7402,-2.7457,-2.7458,-2.7491,-2.7506,-2.7527,0,0,0,-2.7409,-2.7441,-2.7409,-2.7442,-2.7406,-2.7427,-2.74,-2.7415,-2.7421,-2.7401,-2.7458,-2.7459,-2.749,-2.7504,-2.7525,-2.7546,-2.7557,0,0,-2.7457,-2.7447,-2.7466,-2.7437,-2.7466,-2.7426,-2.7461,-2.7453,-2.7441,-2.7454,-2.7455,-2.7493,-2.7506,-2.7527,-2.7614,-2.7623,0,0,0,-2.7486,-2.7499,-2.7504,-2.751,-2.7505,-2.7502,-2.7488,-2.7485,-2.7495,-2.7451,-2.7508,-2.7514,-2.7526,-2.7535,-2.7543,-2.7551,-2.7464,-2.7464,-2.7464,-2.7573,-2.7555,-2.7585,-2.7567,-2.7574,-2.7559,-2.7563,-2.7556,-2.7538,-2.7551,-2.7554,-2.7609,-2.7621,-2.7626,-2.7635,-2.7566,-2.7566,-2.7566,-2.7566,-2.7641,-2.7656,-2.763,-2.7649,-2.763,-2.7646,-2.7634,-2.762,-2.7632,-2.7606,-2.7615,-2.7586,-2.7636,-2.7643,-2.7569,-2.7568,-2.7568,-2.7568,-2.7567,-2.7694,-2.7698,-2.7694,-2.7701,-2.7709,-2.7691,-2.7703,-2.7687,-2.7672,-2.7681,-2.7682,-2.7681,-2.7677,-2.7683,-2.7683,-2.7683,-2.7684,-2.7684,-2.7684,-2.775,-2.7745,-2.7757,-2.7755,-2.7756,-2.7757,-2.7743,-2.7744,-2.7741,-2.7728,-2.7728,-2.7707,-2.7645,-2.7628,-2.7687,-2.7686,-2.7686,-2.7685,-2.7685,-2.7821,-2.7802,-2.7821,-2.7823,-2.7819,-2.7827,-2.7807,-2.7811,-2.781,-2.7816,-2.7794,-2.7751,-2.774,-2.7734,-2.772,-2.7799,-2.7799,-2.7799,-2.7799,-2.7865,-2.7858,-2.7873,-2.7877,-2.7879,-2.7862,-2.7884,-2.7874,-2.7861,-2.7859,-2.7846,-2.7827,-2.7822,-2.7813,-2.7806,-2.7792,-2.7887,-2.7887,-2.7888,-2.7907,-2.7899,-2.792,-2.7907,-2.7903,-2.79,-2.792,-2.7925,-2.7907,-2.7891,-2.7857,-2.7853,-2.7822,-2.7814,-2.7794,-2.7783,-2.7758,0,0]},{"header":{"parameterUnit":"m.s-1","parameterCategory":1,"la1":30.2992,"la2":30.254,"lo1":-89.0895,"lo2":-89.0443,"dy":0.0025,"dx":0.0025,"nx":19,"ny":19,"refTime":"2026-04-12T09:00:00:Z","depth":0,"parameterNumber":3,"parameterNumberName":"V-component_of_WINDS"},"data":[0,0,0,3.8871,3.8871,3.8909,3.891,3.894,3.894,0,0,0,0,0,0,0,0,0,0,0,3.8849,3.8849,3.8871,3.8871,3.8909,3.891,3.894,3.894,0,0,0,0,0,0,0,0,0,0,0,3.885,3.8849,3.8849,3.8871,3.8909,3.891,3.894,3.8917,0,0,0,0,0,0,0,0,0,0,3.8883,3.8855,3.8849,3.8849,3.8872,3.8909,3.891,3.8917,3.8919,3.8916,0,3.8912,0,3.8927,3.8941,3.8941,0,0,0,3.8878,3.8853,3.8872,3.8849,3.8872,3.8909,3.8894,3.8918,3.892,3.8918,3.8912,3.8914,3.8927,3.8941,3.8942,3.8908,3.8908,0,0,3.8876,3.885,3.887,3.8873,3.8868,3.8893,3.8895,3.892,3.891,3.8912,3.8915,3.8928,3.8942,3.8942,3.8909,3.8908,0,0,0,3.8865,3.8848,3.8868,3.8872,3.888,3.8894,3.8896,3.8909,3.8918,3.8915,3.8928,3.8942,3.8942,3.8909,3.8908,3.8863,0,0,0,3.8864,3.8843,3.8867,3.8851,3.8879,3.8895,3.8885,3.8916,3.892,3.8928,3.8942,3.8942,3.891,3.8909,3.8866,3.8845,0,0,0,3.885,3.8841,3.8844,3.885,3.8866,3.8896,3.8906,3.8918,3.8927,3.8941,3.8942,3.891,3.8909,3.8868,3.8849,3.8831,0,0,0,3.8827,3.8799,3.8842,3.8817,3.8866,3.8868,3.8906,3.8908,3.8915,3.8942,3.891,3.8908,3.8868,3.8851,3.8833,3.8811,3.88,0,0,3.8778,3.8793,3.878,3.882,3.8809,3.8864,3.8846,3.8874,3.8897,3.8903,3.8902,3.8865,3.8849,3.8831,3.8745,3.8736,0,0,0,3.8756,3.8746,3.8749,3.8756,3.878,3.8799,3.8833,3.8844,3.8851,3.8896,3.8854,3.8845,3.8836,3.8827,3.8819,3.8813,3.8903,3.8903,3.8903,3.8648,3.8683,3.8665,3.8705,3.8711,3.875,3.8758,3.878,3.8809,3.8799,3.88,3.8744,3.8733,3.8727,3.872,3.8792,3.8792,3.8791,3.8791,3.858,3.8573,3.8618,3.8617,3.8653,3.8652,3.8689,3.871,3.8714,3.8745,3.8738,3.8769,3.8716,3.8712,3.8788,3.8789,3.8789,3.8789,3.879,3.8513,3.8516,3.8533,3.855,3.8559,3.8601,3.8604,3.8636,3.8666,3.866,3.8666,3.8667,3.8672,3.8661,3.8661,3.866,3.866,3.866,3.866,3.8437,3.8458,3.8458,3.8485,3.8496,3.8514,3.8556,3.8567,3.8587,3.8611,3.8611,3.8642,3.8705,3.872,3.8657,3.8658,3.8658,3.8658,3.8658,3.8355,3.838,3.838,3.8391,3.8427,3.8435,3.8478,3.8499,3.8513,3.8514,3.8549,3.859,3.8606,3.8612,3.8625,3.8541,3.8541,3.8541,3.8541,3.8299,3.8312,3.8321,3.8338,3.8358,3.8399,3.8398,3.8431,3.8468,3.8479,3.8497,3.8517,3.8522,3.8535,3.8543,3.8555,3.8456,3.8455,3.8455,3.8251,3.8268,3.8261,3.8302,3.8333,3.8359,3.836,3.8377,3.8424,3.8453,3.8489,3.8493,3.8525,3.8534,3.8561,3.8573,3.8596,0,0]}]]